[[{"header":{"parameterUnit":"m.s-1","parameterCategory":1,"la1":30.2991,"la2":30.254,"lo1":-89.0895,"lo2":-89.0444,"dy":0.0017,"dx":0.0017,"nx":28,"ny":28,"refTime":"2025-08-04T09:00:00:Z","depth":0,"parameterNumber":2,"parameterNumberName":"U-component_of_WINDS"},"data":[0,0,0,0,0,0,0,0,0,0,0,0,0,0,0,0,0,0,0,0,0,0,0,0,0,0,0,0,0,0,0,0,0,0,0,0,0,0,0,0,0,0,0,0,0,0,0,0,0,0,0,0,0,0,0,0,0,0,-0.0716,-0.0718,0,-0.0877,-0.0879,-0.0881,-0.09,-0.0898,-0.0897,-0.0895,-0.1057,-0.1063,-0.1069,0,0,0,0,0,0,0,0,0,0,0,0,0,-0.042,-0.0426,-0.0716,-0.0718,-0.072,-0.0877,-0.0879,-0.0882,-0.09,-0.0898,-0.0896,-0.0895,-0.1055,-0.1062,-0.1069,0,0,0,0,0,0,0,0,0,0,0,0,0,-0.0562,-0.0427,-0.0716,-0.0749,-0.0753,-0.0877,-0.0879,-0.0882,-0.0901,-0.0898,-0.0896,-0.0894,-0.1053,-0.1062,-0.107,-0.1171,0,0,-0.1097,-0.1101,0,0,0,0,0,0,0,0,-0.0554,-0.0573,-0.0742,-0.0747,-0.0752,-0.0866,-0.0834,-0.0979,-0.0901,-0.0845,-0.0895,-0.0892,-0.0996,-0.1009,-0.1044,-0.1179,-0.1186,-0.1098,-0.1103,-0.1107,-0.1109,0,0,0,0,0,0,0,-0.0544,-0.0566,-0.078,-0.0744,-0.075,-0.0754,-0.0771,-0.0862,-0.0931,-0.0849,-0.0851,-0.087,-0.0998,-0.1036,-0.1048,-0.1188,-0.1097,-0.1105,-0.111,-0.1114,-0.1411,-0.1414,0,0,0,0,0,0,-0.0529,-0.0557,-0.0775,-0.0785,-0.0645,-0.0761,-0.0781,-0.0832,-0.093,-0.0943,-0.0872,-0.087,-0.1022,-0.1038,-0.1054,-0.1178,-0.1106,-0.1115,-0.112,-0.1409,-0.1412,-0.1415,0,0,0,0,0,0,-0.0522,-0.0548,-0.0768,-0.0672,-0.07,-0.0769,-0.0826,-0.0836,-0.0874,-0.0948,-0.096,-0.0898,-0.1021,-0.1042,-0.1142,-0.1183,-0.1119,-0.1126,-0.1405,-0.141,-0.1413,-0.1426,0,0,0,0,0,0,-0.0514,-0.0545,-0.0586,-0.0673,-0.0705,-0.0855,-0.0829,-0.0841,-0.089,-0.0889,-0.0975,-0.0987,-0.1021,-0.1129,-0.115,-0.1194,-0.1133,-0.1402,-0.1407,-0.1412,-0.1423,-0.143,-0.1437,0,0,0,0,0,-0.0503,-0.0583,-0.0588,-0.0614,-0.0757,-0.0858,-0.0876,-0.0913,-0.0893,-0.0933,-0.098,-0.0985,-0.1175,-0.1139,-0.1163,-0.121,-0.14,-0.1406,-0.1412,-0.1419,-0.1429,-0.1437,0,0,0,0,0,0,-0.0499,-0.0595,-0.0602,-0.0712,-0.0777,-0.0861,-0.0913,-0.0923,-0.0993,-0.099,-0.1032,-0.1051,-0.1149,-0.119,-0.1147,-0.1312,-0.1285,-0.1296,-0.1282,-0.1292,-0.1299,-0.1288,-0.114,0,0,0,0,0,-0.0511,-0.0586,-0.0665,-0.0755,-0.0787,-0.0844,-0.0889,-0.0912,-0.098,-0.1007,-0.1061,-0.1126,-0.12,-0.1248,-0.1321,-0.1428,-0.1446,-0.1472,-0.1479,-0.1485,-0.1494,-0.1552,-0.1564,-0.1435,-0.1435,-0.1435,0,0,-0.0537,-0.0598,-0.0643,-0.0756,-0.0808,-0.0883,-0.0867,-0.0947,-0.1003,-0.1019,-0.1117,-0.1158,-0.1233,-0.1337,-0.1385,-0.1373,-0.1534,-0.1493,-0.1497,-0.1503,-0.1559,-0.1571,-0.1582,-0.1439,-0.1438,-0.1437,0,0,-0.0622,-0.0677,-0.0757,-0.081,-0.0889,-0.0927,-0.0945,-0.1028,-0.1056,-0.1155,-0.1168,-0.1233,-0.1361,-0.1413,-0.1456,-0.1558,-0.1564,-0.158,-0.1618,-0.1674,-0.1684,-0.1693,-0.1728,-0.1741,-0.1589,-0.1589,-0.1589,0,-0.0644,-0.0758,-0.0797,-0.0876,-0.0925,-0.0943,-0.1023,-0.1072,-0.1171,-0.1203,-0.1189,-0.1348,-0.1399,-0.1514,-0.1539,-0.1574,-0.1595,-0.1571,-0.168,-0.1689,-0.1699,-0.1732,-0.1746,-0.159,-0.159,-0.159,-0.159,0,-0.078,-0.0859,-0.0914,-0.101,-0.1064,-0.1143,-0.1192,-0.1242,-0.1259,-0.1297,-0.1396,-0.1458,-0.1543,-0.1571,-0.1589,-0.1688,-0.1678,-0.1671,-0.1645,-0.1712,-0.1744,-0.1757,-0.1592,-0.1592,-0.1592,-0.1591,0,0,-0.0869,-0.0984,-0.1003,-0.1046,-0.1134,-0.1195,-0.1274,-0.1357,-0.1398,-0.1465,-0.1531,-0.1637,-0.1631,-0.1679,-0.1703,-0.1752,-0.1826,-0.1738,-0.1741,-0.1752,-0.1937,-0.1942,-0.1956,-0.183,-0.1833,-0.1835,-0.193,0,-0.0964,-0.1107,-0.1143,-0.1264,-0.1336,-0.1353,-0.1422,-0.1482,-0.1519,-0.1584,-0.1624,-0.1698,-0.1684,-0.1714,-0.1763,-0.1807,-0.1864,-0.18,-0.1891,-0.1894,-0.1872,-0.1974,-0.1979,-0.2067,-0.1943,-0.1946,-0.1947,0,-0.1094,-0.1164,-0.1293,-0.137,-0.1401,-0.1463,-0.1541,-0.1603,-0.1671,-0.1694,-0.1747,-0.1765,-0.1846,-0.1814,-0.1925,-0.1881,-0.1919,-0.1946,-0.195,-0.196,-0.1925,-0.1986,-0.2095,-0.2108,-0.1968,-0.1966,-0.1965,0,-0.1145,-0.1271,-0.1364,-0.14,-0.1493,-0.1535,-0.1575,-0.164,-0.1687,-0.1754,-0.1785,-0.186,-0.1901,-0.1958,-0.1995,-0.1969,-0.2102,-0.2074,-0.2122,-0.2121,-0.215,-0.2147,-0.2267,-0.2175,-0.2174,-0.2174,-0.2174,0,-0.1247,-0.1324,-0.1388,-0.1445,-0.1532,-0.1571,-0.1655,-0.1695,-0.1753,-0.1816,-0.1835,-0.1894,-0.1939,-0.2004,-0.2033,-0.2118,-0.2137,-0.2157,-0.2163,-0.2155,-0.2152,-0.2181,-0.2176,-0.2178,-0.2177,-0.2176,-0.2176,0,-0.1318,-0.1364,-0.1466,-0.1545,-0.1567,-0.1627,-0.1694,-0.1748,-0.1785,-0.1865,-0.1886,-0.1943,-0.2019,-0.2061,-0.2157,-0.2176,-0.2272,-0.2276,-0.225,-0.2253,-0.2298,-0.2293,-0.244,-0.246,-0.2355,-0.2356,-0.2356,0,-0.138,-0.1441,-0.1526,-0.157,-0.1612,-0.1683,-0.1731,-0.1771,-0.1819,-0.19,-0.1944,-0.2022,-0.2087,-0.2208,-0.2256,-0.2329,-0.2334,-0.238,-0.2345,-0.2334,-0.2334,-0.233,-0.2335,-0.2387,-0.2388,-0.2388,-0.2389,0,-0.1485,-0.1504,-0.1574,-0.1651,-0.1707,-0.177,-0.1831,-0.1866,-0.1915,-0.1968,-0.2047,-0.2097,-0.2195,-0.2271,-0.2347,-0.2386,-0.2395,-0.24,-0.2414,-0.2407,-0.2389,-0.2398,-0.2266,-0.2396,-0.2396,-0.2395,-0.2395,-0.2394,-0.1554,-0.1607,-0.1675,-0.1751,-0.1802,-0.1858,-0.1913,-0.1956,-0.2023,-0.2107,-0.2125,-0.2208,-0.2271,-0.2375,-0.2416,-0.2479,-0.247,-0.2492,-0.2497,-0.2502,-0.2503,-0.2378,-0.2493,-0.2493,-0.2493,-0.2493,-0.2493,0,-0.1658,-0.1703,-0.1772,-0.1858,-0.1917,-0.1921,-0.1988,-0.2037,-0.211,-0.2169,-0.2232,-0.2321,-0.2395,-0.2448,-0.2523,-0.2563,-0.2569,-0.2581,-0.2579,-0.2587,-0.2508,-0.2487,-0.2575,-0.2575,-0.2575,-0.2575,-0.2575,-0.2575,-0.172,-0.1811,-0.1838,-0.1953,-0.1996,-0.2079,-0.2116,-0.2168,-0.2215,-0.2314,-0.2376,-0.2411,-0.2467,-0.2545,-0.2612,-0.2625,-0.2651,-0.2663,-0.2677,-0.2602,-0.2593,-0.2585,-0.2566,-0.2668,-0.2669,-0.2751,-0.2752,-0.2752]},{"header":{"parameterUnit":"m.s-1","parameterCategory":1,"la1":30.2991,"la2":30.254,"lo1":-89.0895,"lo2":-89.0444,"dy":0.0017,"dx":0.0017,"nx":28,"ny":28,"refTime":"2025-08-04T09:00:00:Z","depth":0,"parameterNumber":3,"parameterNumberName":"V-component_of_WINDS"},"data":[0,0,0,0,0,0,0,0,0,0,0,0,0,0,0,0,0,0,0,0,0,0,0,0,0,0,0,0,0,0,0,0,0,0,0,0,0,0,0,0,0,0,0,0,0,0,0,0,0,0,0,0,0,0,0,0,0,0,-0.3747,-0.3746,0,-0.3652,-0.3651,-0.365,-0.355,-0.3548,-0.3547,-0.3546,-0.3453,-0.3452,-0.3451,0,0,0,0,0,0,0,0,0,0,0,0,0,-0.3847,-0.3845,-0.3747,-0.3745,-0.3744,-0.3653,-0.3651,-0.365,-0.355,-0.3548,-0.3547,-0.3545,-0.3454,-0.3452,-0.3451,0,0,0,0,0,0,0,0,0,0,0,0,0,-0.3783,-0.3845,-0.3747,-0.3683,-0.3677,-0.3653,-0.3651,-0.365,-0.355,-0.3548,-0.3546,-0.3544,-0.3454,-0.3453,-0.3451,-0.3483,0,0,-0.3446,-0.3445,0,0,0,0,0,0,0,0,-0.3787,-0.378,-0.3694,-0.3688,-0.368,-0.361,-0.3653,-0.3594,-0.3551,-0.3598,-0.3546,-0.3543,-0.3508,-0.3501,-0.3489,-0.3479,-0.3475,-0.3446,-0.3445,-0.3444,-0.3443,0,0,0,0,0,0,0,-0.3791,-0.3783,-0.3709,-0.3693,-0.3684,-0.3662,-0.365,-0.3641,-0.3566,-0.3594,-0.3587,-0.3577,-0.3504,-0.3491,-0.3486,-0.3474,-0.3446,-0.3444,-0.3443,-0.3442,-0.3491,-0.3493,0,0,0,0,0,0,-0.3805,-0.3787,-0.3712,-0.3707,-0.3729,-0.3662,-0.3649,-0.3635,-0.3566,-0.3554,-0.3579,-0.3572,-0.3494,-0.3488,-0.3482,-0.3518,-0.3444,-0.3442,-0.3441,-0.3489,-0.3491,-0.3494,0,0,0,0,0,0,-0.3807,-0.3799,-0.3716,-0.3745,-0.3733,-0.3662,-0.3648,-0.3634,-0.3621,-0.3554,-0.3541,-0.3578,-0.3492,-0.3484,-0.3485,-0.3514,-0.3442,-0.344,-0.3486,-0.349,-0.3493,-0.359,0,0,0,0,0,0,-0.381,-0.38,-0.381,-0.3746,-0.3731,-0.3718,-0.3649,-0.3634,-0.3618,-0.3609,-0.3551,-0.3539,-0.349,-0.3488,-0.3483,-0.351,-0.3439,-0.3483,-0.3488,-0.3492,-0.3583,-0.3596,-0.3606,0,0,0,0,0,-0.3814,-0.3841,-0.3811,-0.3803,-0.3742,-0.372,-0.3712,-0.3654,-0.3621,-0.3631,-0.3589,-0.3541,-0.3511,-0.3488,-0.3482,-0.3509,-0.3481,-0.3486,-0.3491,-0.3578,-0.3593,-0.3606,0,0,0,0,0,0,-0.3911,-0.3831,-0.3797,-0.3803,-0.3769,-0.3703,-0.3714,-0.3671,-0.3647,-0.3639,-0.357,-0.3558,-0.3567,-0.3538,-0.3514,-0.354,-0.349,-0.3494,-0.3558,-0.3572,-0.3583,-0.359,-0.3437,0,0,0,0,0,-0.3933,-0.392,-0.3852,-0.3864,-0.3849,-0.3785,-0.3773,-0.3732,-0.3694,-0.368,-0.3637,-0.3604,-0.3587,-0.3578,-0.3558,-0.3579,-0.3567,-0.3595,-0.3607,-0.3616,-0.3621,-0.3634,-0.3646,-0.3511,-0.3511,-0.3511,0,0,-0.3978,-0.3933,-0.3929,-0.3883,-0.3851,-0.3842,-0.3773,-0.3766,-0.3759,-0.3679,-0.3676,-0.3645,-0.3603,-0.3615,-0.3618,-0.3591,-0.3656,-0.3623,-0.3631,-0.363,-0.364,-0.3653,-0.3665,-0.3514,-0.3514,-0.3513,0,0,-0.4056,-0.402,-0.4027,-0.3998,-0.3952,-0.391,-0.3912,-0.3853,-0.3829,-0.3825,-0.3766,-0.3758,-0.373,-0.3704,-0.3687,-0.3761,-0.3717,-0.3757,-0.3817,-0.383,-0.3841,-0.385,-0.3879,-0.3889,-0.3762,-0.3762,-0.3762,0,-0.4118,-0.41,-0.4037,-0.4034,-0.4017,-0.3944,-0.3953,-0.3928,-0.3879,-0.387,-0.384,-0.3806,-0.3773,-0.3779,-0.3797,-0.3785,-0.3788,-0.3763,-0.3844,-0.3853,-0.386,-0.3887,-0.3898,-0.3767,-0.3766,-0.3766,-0.3765,0,-0.4181,-0.417,-0.4182,-0.4136,-0.412,-0.4124,-0.4064,-0.4056,-0.4017,-0.398,-0.398,-0.3938,-0.391,-0.3909,-0.387,-0.3911,-0.3896,-0.3856,-0.3805,-0.3879,-0.3904,-0.3913,-0.3775,-0.3773,-0.3771,-0.377,0,0,-0.4314,-0.4236,-0.4242,-0.4222,-0.4167,-0.4158,-0.4161,-0.4133,-0.4129,-0.4099,-0.4101,-0.408,-0.4045,-0.4026,-0.3985,-0.3996,-0.4061,-0.3955,-0.3953,-0.3978,-0.4106,-0.4137,-0.415,-0.4031,-0.4033,-0.4034,-0.411,0,-0.4384,-0.4381,-0.4326,-0.434,-0.4331,-0.4264,-0.4266,-0.4235,-0.42,-0.419,-0.4152,-0.414,-0.4092,-0.4081,-0.4089,-0.4051,-0.4086,-0.4044,-0.4035,-0.4035,-0.4048,-0.4162,-0.4193,-0.4267,-0.4119,-0.4121,-0.4122,0,-0.4464,-0.4439,-0.4452,-0.44,-0.4394,-0.4397,-0.437,-0.436,-0.4324,-0.4299,-0.428,-0.4234,-0.4235,-0.4187,-0.419,-0.4163,-0.4156,-0.4137,-0.4139,-0.4136,-0.4083,-0.4164,-0.4289,-0.4301,-0.4135,-0.4134,-0.4133,0,-0.4563,-0.4532,-0.4537,-0.4522,-0.4461,-0.4465,-0.4441,-0.4403,-0.4391,-0.4369,-0.4361,-0.4339,-0.4328,-0.4313,-0.4263,-0.4232,-0.4273,-0.422,-0.4255,-0.4256,-0.4266,-0.4267,-0.4394,-0.426,-0.426,-0.426,-0.426,0,-0.4647,-0.4658,-0.4581,-0.4584,-0.4596,-0.4535,-0.4549,-0.4518,-0.4486,-0.4484,-0.4425,-0.4424,-0.4358,-0.4352,-0.4313,-0.4323,-0.4318,-0.43,-0.4289,-0.4305,-0.4308,-0.43,-0.4295,-0.4263,-0.4262,-0.4262,-0.4261,0,-0.4759,-0.4708,-0.4709,-0.4652,-0.4639,-0.465,-0.4603,-0.4605,-0.4569,-0.4567,-0.4564,-0.4507,-0.4496,-0.4445,-0.4423,-0.4397,-0.4422,-0.44,-0.4433,-0.4427,-0.4465,-0.4463,-0.4593,-0.4608,-0.4464,-0.4466,-0.4467,0,-0.4816,-0.4823,-0.4769,-0.4763,-0.4741,-0.4732,-0.4721,-0.4662,-0.4653,-0.4616,-0.4624,-0.4608,-0.4593,-0.458,-0.4538,-0.4522,-0.45,-0.4547,-0.4498,-0.4515,-0.4504,-0.4505,-0.4506,-0.4558,-0.456,-0.4561,-0.4563,0,-0.4924,-0.49,-0.4884,-0.4862,-0.485,-0.483,-0.4806,-0.4805,-0.4741,-0.4735,-0.4723,-0.4711,-0.4689,-0.4676,-0.4653,-0.463,-0.4588,-0.4579,-0.4586,-0.4603,-0.4623,-0.4615,-0.4464,-0.4576,-0.4575,-0.4574,-0.4573,-0.4572,-0.5012,-0.5017,-0.498,-0.4966,-0.4943,-0.4923,-0.4923,-0.4888,-0.4877,-0.4854,-0.4821,-0.4815,-0.4783,-0.4748,-0.4729,-0.4725,-0.47,-0.4711,-0.4713,-0.4717,-0.4727,-0.4623,-0.4721,-0.472,-0.472,-0.4719,-0.4719,0,-0.5119,-0.5093,-0.5081,-0.505,-0.5041,-0.5001,-0.4974,-0.4969,-0.4964,-0.4938,-0.4925,-0.4914,-0.4902,-0.486,-0.4844,-0.485,-0.483,-0.4848,-0.4847,-0.4844,-0.4749,-0.4745,-0.4864,-0.4864,-0.4864,-0.4864,-0.4864,-0.4864,-0.5173,-0.518,-0.5152,-0.5148,-0.5122,-0.5115,-0.5104,-0.5086,-0.5065,-0.5056,-0.5045,-0.5018,-0.4987,-0.4969,-0.4958,-0.4946,-0.4944,-0.4969,-0.4952,-0.4864,-0.485,-0.4836,-0.4832,-0.4969,-0.4969,-0.5047,-0.5047,-0.5048]}]]